Temp
12 13 13 13 13 13 13 13 13 14 14 14 14 13 14 13 14 14 13 13 12 12 12 13 14 14 16 14 16 19 20 20 20 19 19 18 17 18 18 17 18 18 18 17 18 16 17
10 10 10 11 11 11 12 12 13 13 13 12 13 13 13 13 13 13 13 12 12 12 12 12 12 13 14 15 18 19 19 19 19 19 19 19 18 18 18 18 18 18 18 16 17 18 18
9 10 9 9 9 11 11 11 11 11 12 12 12 13 12 12 14 13 13 12 12 12 12 12 11 12 11 15 18 19 19 18 19 19 18 19 19 18 18 18 17 18 17 16 18 20 20
9 9 9 9 9 9 9 10 10 11 11 12 12 12 12 12 12 13 13 12 12 11 11 11 11 11 11 17 17 18 18 18 19 18 19 19 19 18 18 18 16 17 15 16 18 19 19
8 8 8 8 9 9 9 9 9 9 10 10 12 12 11 12 12 13 12 12 12 12 11 11 11 10 12 17 16 18 18 18 19 19 19 19 19 16 16 14 14 13 15 16 17 18 19
8 9 8 8 9 9 9 10 9 9 9 10 10 11 11 11 12 12 12 12 11 11 10 10 10 11 14 17 18 18 18 19 19 18 17 16 12 12 11 12 14 15 15 15 16 17 15
8 8 8 8 9 9 9 9 9 9 9 10 10 10 10 11 11 11 11 11 10 10 9 13 13 14 15 17 18 19 18 18 18 16 15 14 13 13 13 13 15 15 15 14 13 14 16
8 8 8 8 9 9 9 9 9 9 9 10 10 10 10 10 10 10 11 11 13 12 11 11 11 12 13 15 14 17 19 17 16 15 14 13 13 14 14 14 14 14 14 13 14 15 14
8 8 8 8 8 8 9 8 8 8 9 10 10 9 10 10 10 10 11 11 13 13 12 12 12 12 14 14 14 16 17 16 16 14 13 13 15 14 15 15 14 14 13 14 14 15 15
8 8 8 8 8 8 8 8 8 8 8 9 9 10 10 10 10 9 10 11 13 13 10 12 12 13 14 15 14 16 17 16 15 14 13 13 14 15 14 14 14 14 14 14 14 14 13
7 8 8 8 8 8 8 8 7 8 8 9 9 9 9 11 10 9 11 12 12 13 10 15 14 15 14 14 16 15 16 16 13 14 13 14 15 14 14 14 14 14 16 15 15 14 12
7 7 7 8 7 7 8 8 7 7 8 8 9 9 9 9 10 11 12 12 12 9 10 14 14 14 13 14 16 15 16 16 14 15 15 14 15 16 15 16 17 15 15 13 10 10 11
7 7 7 7 7 7 7 7 7 7 7 8 8 9 9 9 10 11 11 10 10 10 14 15 14 13 13 14 16 15 14 14 13 12 12 14 14 15 16 15 15 14 12 10 10 10 11
6 7 7 7 7 7 7 8 7 7 7 7 8 8 9 9 10 10 11 10 10 12 12 15 15 14 14 15 15 15 13 13 14 13 11 12 14 14 15 14 14 12 12 10 12 11 11
6 6 7 6 7 7 7 7 7 7 7 7 7 7 8 9 9 10 9 10 10 11 13 14 15 14 14 15 14 15 13 12 13 13 13 11 13 15 15 15 15 13 12 12 12 11 9
6 6 6 6 6 6 6 7 7 6 6 7 6 7 7 8 9 8 9 11 10 12 14 15 14 14 12 13 14 13 12 14 14 13 14 13 13 14 15 15 13 14 12 10 8 11 11
5 5 5 5 6 6 6 6 6 6 6 6 6 6 7 8 7 7 9 10 11 11 13 14 14 14 14 13 13 12 14 15 13 13 13 12 13 13 14 13 12 12 11 10 10 10 9
4 5 5 5 5 6 6 6 6 6 6 6 6 5 6 7 7 6 8 9 11 12 12 13 13 14 14 15 14 12 13 14 11 11 12 12 11 10 12 11 11 12 11 10 7 11 9
4 4 5 5 5 5 5 5 5 6 6 5 6 4 5 6 7 7 7 9 10 11 12 12 12 13 14 13 14 13 13 10 9 12 11 11 10 8 10 11 11 11 10 10 9 8 10
4 4 4 4 5 5 5 4 5 6 6 5 4 5 5 5 5 7 9 9 10 10 11 12 12 13 13 13 13 13 11 10 9 10 11 11 10 9 11 11 9 9 9 9 9 7 10
3 3 3 4 4 5 5 5 4 5 6 5 4 5 5 5 6 7 8 8 9 10 10 10 11 11 11 11 12 11 10 10 10 10 9 10 11 6 8 10 10 10 9 8 7 10 8
3 3 3 3 4 4 5 4 4 4 5 4 4 4 2 4 6 6 8 8 8 9 9 9 10 10 11 10 11 10 9 9 10 9 9 7 7 3 4 8 8 7 7 7 8 8 7
3 3 3 3 3 4 4 5 4 3 4 3 3 4 4 5 5 6 7 8 8 8 9 10 10 10 9 9 9 10 10 10 10 9 8 7 5 5 7 7 8 6 5 6 5 6 7
2 3 3 3 3 3 4 4 3 3 3 3 4 4 4 4 5 7 8 7 7 8 6 9 9 9 10 9 9 9 8 8 8 8 7 4 5 6 7 6 7 7 7 7 7 7 6
2 2 3 3 3 3 3 3 4 3 3 4 4 4 4 4 6 6 7 7 7 7 7 7 8 9 8 9 8 8 7 9 9 8 6 5 5 5 7 6 8 9 8 7 6 8 7
2 2 2 2 3 3 3 3 2 2 2 3 4 5 4 3 5 7 6 6 6 6 6 7 9 7 7 6 6 7 8 8 8 7 5 6 4 6 5 6 6 7 8 8 7 5 4
2 2 2 2 2 3 3 3 2 2 2 3 4 4 3 4 4 6 5 6 6 5 5 6 7 7 7 5 6 7 8 9 8 8 6 5 3 7 6 7 7 9 7 8 6 6 3
2 2 2 2 2 3 3 3 2 2 2 2 3 4 4 3 3 5 6 6 5 6 5 5 6 6 5 7 7 7 6 7 7 8 7 7 6 4 7 7 7 7 7 7 6 4 3
2 2 2 2 2 2 2 2 2 2 3 3 3 4 4 3 3 4 4 4 4 7 7 4 7 5 4 5 4 5 4 3 6 6 8 8 6 6 8 7 7 6 7 5 3 4 2
Height
791 794 795 795 800 801 804 807 807 807 810 811 813 814 814 815 814 815 816 817 816 814 814 812 809 808 804 804 797 792 791 791 789 789 790 792 793 796 802 801 799 800 800 799 798 798 796
789 789 791 793 795 795 799 801 802 803 805 808 809 810 811 813 812 813 814 815 814 814 814 811 810 807 809 807 791 790 791 791 790 790 790 791 795 794 799 799 801 799 799 800 795 792 793
786 784 787 790 791 792 795 796 798 799 800 803 805 807 806 809 809 810 811 813 813 812 813 811 810 809 809 797 788 788 788 789 790 791 791 791 792 794 797 801 797 797 803 800 794 790 790
785 784 784 785 786 788 791 791 795 793 798 799 801 804 804 805 806 807 808 810 810 811 811 811 811 810 803 787 786 786 786 787 789 790 791 792 793 793 796 796 801 803 808 812 796 792 791
786 780 785 781 785 785 786 786 789 790 794 793 795 798 800 803 803 804 806 807 808 808 809 810 810 811 799 786 784 781 784 786 787 788 790 792 793 800 801 811 818 816 817 814 806 794 794
777 779 782 782 783 783 784 786 786 788 791 787 790 795 795 798 803 803 803 805 807 806 807 809 809 811 792 786 781 782 782 785 787 787 792 796 805 812 817 819 826 815 815 815 814 802 804
774 775 777 779 781 781 783 783 787 787 788 784 788 792 792 794 799 800 802 804 809 808 806 797 798 793 787 785 781 781 783 786 787 793 801 804 813 816 812 812 808 809 813 819 818 807 807
771 771 772 775 779 778 780 781 784 783 784 786 782 789 789 792 796 800 800 801 802 805 803 792 793 792 787 787 790 780 781 789 792 801 802 812 816 803 805 809 812 813 816 818 811 803 807
765 768 768 772 774 777 777 778 782 779 782 786 781 786 787 792 795 796 798 800 802 803 803 790 782 781 780 784 785 778 780 785 792 800 805 811 803 799 803 806 811 813 816 814 812 803 803
759 763 763 766 769 773 775 775 778 780 780 781 784 785 785 791 797 795 796 800 802 803 813 790 780 771 772 775 778 768 772 782 791 795 803 804 796 798 803 806 810 815 805 805 806 809 819
753 756 758 761 762 769 771 775 774 777 779 781 782 783 784 789 788 794 795 797 802 804 826 773 773 769 767 774 768 770 768 774 789 792 796 796 792 797 801 802 801 808 800 802 804 810 815
746 750 752 754 759 762 766 770 772 773 776 779 780 782 784 786 789 788 794 796 803 822 813 772 768 772 773 772 768 770 771 772 781 789 789 791 787 788 791 790 790 798 801 812 826 827 829
739 743 746 750 752 758 760 765 768 770 774 775 779 778 782 784 787 787 792 798 809 811 776 771 769 771 772 773 770 770 776 781 788 800 800 791 789 784 785 793 794 801 813 836 833 836 821
732 736 740 743 747 751 756 759 765 766 770 772 775 778 778 782 784 786 791 798 803 778 778 764 765 769 774 770 771 774 779 784 782 787 803 802 795 785 784 790 794 803 809 826 818 827 816
723 727 732 737 741 746 750 753 760 763 767 771 773 775 775 778 782 784 790 791 786 777 768 766 764 770 772 769 772 773 781 784 779 782 792 802 795 782 780 782 788 802 809 804 808 818 833
713 718 724 729 734 740 745 750 754 761 764 769 770 773 772 775 779 783 785 777 775 767 762 761 766 766 775 771 772 778 783 774 772 774 773 783 793 787 784 783 790 790 796 819 831 819 811
703 707 715 722 728 734 740 745 750 754 762 766 770 772 768 773 775 780 778 775 768 767 766 764 764 763 765 768 772 779 774 770 771 775 775 784 788 793 788 790 794 799 801 808 812 817 820
696 700 706 715 721 727 733 740 745 750 757 764 764 769 766 768 774 778 778 771 765 762 763 766 764 763 763 762 768 775 774 771 775 775 780 781 792 805 792 793 793 790 796 804 829 807 816
690 695 699 708 715 721 726 733 740 745 750 757 757 763 763 765 763 768 768 763 765 766 764 766 765 764 763 765 768 769 769 778 780 775 779 783 794 815 800 800 794 792 796 798 808 816 800
683 689 694 700 707 714 719 726 733 740 744 755 758 758 763 762 761 758 757 760 764 765 765 762 762 763 765 767 769 770 775 779 778 778 778 778 792 799 788 787 797 802 797 800 804 823 791
677 682 688 694 700 706 712 717 726 733 739 748 751 747 747 752 754 754 757 758 761 763 764 763 764 764 768 773 769 775 780 780 779 779 783 784 784 813 801 792 794 792 796 800 808 787 806
670 675 681 687 693 699 705 709 717 727 735 741 744 744 753 752 750 757 755 754 758 760 765 765 766 767 767 771 771 775 780 783 779 783 783 793 806 825 824 800 800 803 802 801 794 793 795
662 668 673 678 685 692 698 701 710 718 727 728 738 741 744 745 750 753 748 745 752 761 760 761 764 766 771 771 772 770 771 772 771 783 789 796 808 816 811 804 802 806 804 792 798 791 785
653 657 665 672 678 685 692 695 704 708 716 722 724 735 742 745 745 739 742 752 757 756 767 761 764 768 768 766 768 770 774 775 777 779 786 803 804 805 806 808 807 784 780 778 781 775 778
642 649 658 664 671 678 685 691 696 704 710 720 721 730 737 743 740 745 747 748 756 761 764 765 761 763 764 770 780 783 785 774 775 780 785 792 801 809 801 806 788 773 772 779 781 767 766
634 641 648 655 663 671 679 685 691 700 707 717 721 728 733 741 741 740 747 749 756 761 767 763 759 763 767 779 785 783 777 781 781 782 789 791 797 799 809 806 804 779 768 769 770 784 770
623 632 640 648 656 665 673 680 689 697 704 714 720 726 733 740 739 739 742 746 751 758 762 762 761 766 764 780 781 781 775 767 775 777 789 797 807 792 795 793 783 763 766 767 786 776 771
613 623 633 642 650 659 668 676 686 695 703 713 720 725 731 738 741 741 739 741 744 746 758 758 762 762 772 767 769 773 777 771 770 767 774 777 786 800 789 788 782 760 767 770 766 768 770
603 615 626 636 646 656 664 674 684 693 703 712 720 725 732 739 741 740 740 740 742 739 743 750 745 751 757 766 773 772 779 781 770 777 762 767 767 775 767 765 756 756 753 757 761 763 769
Wind_Speed
17 20 20 22 25 26 26 26 24 22 22 20 19 18 17 17 16 15 15 15 14 15 17 19 20 21 11 4 6 3 3 3 5 5 8 4 5 2 2 2 4 2 3 6 5 8 6
17 15 15 13 15 16 20 21 25 25 25 24 22 21 20 21 19 18 16 16 14 14 15 17 18 17 3 4 3 4 6 4 3 4 4 5 2 0 2 1 1 2 3 7 5 6 3
17 19 19 17 18 18 20 19 18 17 18 17 16 17 18 22 21 21 18 15 13 13 14 15 16 12 2 13 5 7 7 4 2 2 2 0 2 4 1 3 2 3 5 6 3 1 1
16 14 15 16 17 21 24 22 25 22 23 24 22 21 19 16 19 18 16 13 11 12 12 11 12 6 7 8 9 14 11 12 9 7 3 3 0 1 1 1 6 3 4 3 4 5 4
17 11 15 13 15 17 18 19 18 19 23 19 22 21 21 19 12 11 12 10 9 10 9 8 3 3 9 9 7 11 15 6 4 4 2 1 2 2 5 4 5 5 2 2 6 5 3
19 20 19 17 14 12 13 15 14 16 18 18 21 23 21 18 21 10 11 9 7 6 3 3 0 3 7 4 2 1 9 9 3 4 4 6 5 3 3 4 4 2 1 0 2 4 7
20 19 18 16 17 13 14 13 14 14 17 15 17 19 18 15 14 15 9 4 1 2 4 7 4 3 4 8 4 2 4 6 3 5 3 3 3 6 8 5 2 2 1 3 5 9 1
24 21 19 18 19 15 12 12 12 12 13 14 13 15 13 13 14 14 11 3 1 1 6 13 12 8 15 3 6 1 8 5 4 5 4 5 6 9 5 3 4 3 2 6 6 6 6
25 25 22 21 19 20 17 10 11 8 10 11 10 12 12 12 13 13 11 5 3 3 4 6 8 7 7 14 11 16 8 4 5 5 6 7 5 5 5 4 4 3 4 4 7 3 3
27 26 24 23 23 20 21 17 9 10 10 10 11 10 12 15 9 11 5 11 4 1 3 6 5 7 5 6 6 10 21 7 3 10 8 6 7 6 3 5 6 3 6 7 5 1 3
29 29 27 24 24 24 21 21 16 10 11 11 9 10 16 20 8 9 6 15 6 2 3 2 3 5 5 9 1 3 8 5 9 6 6 6 3 3 3 5 7 7 2 1 1 1 2
32 31 29 27 26 25 21 20 21 15 14 12 12 12 19 19 7 9 12 21 6 4 8 3 5 4 5 3 1 3 4 5 5 4 2 5 1 4 6 4 3 4 3 5 4 2 4
29 33 32 30 28 26 23 21 23 18 14 14 13 13 22 17 6 13 19 11 4 5 3 2 4 5 3 5 2 3 6 6 6 5 4 1 6 3 4 3 1 4 5 2 3 1 5
30 31 34 33 30 29 27 24 22 20 18 14 13 13 21 22 10 20 19 3 6 5 6 3 3 3 5 4 4 2 5 4 1 5 3 4 3 5 3 6 6 5 7 5 5 3 5
32 30 31 35 32 28 28 27 22 21 18 16 12 13 9 24 17 26 6 8 7 6 5 4 4 3 4 3 4 3 5 6 8 8 7 5 4 1 3 4 5 4 3 4 2 1 1
35 30 30 33 33 29 28 27 26 20 17 18 11 6 5 21 19 14 7 10 5 3 2 1 7 5 7 5 5 5 5 4 5 10 4 5 1 1 1 3 4 4 5 3 2 2 5
30 29 27 30 33 32 30 29 27 25 20 19 10 3 9 18 18 3 9 11 5 5 2 2 1 2 3 5 6 5 6 3 4 4 5 5 4 2 1 4 7 2 1 3 3 3 3
30 30 26 25 28 31 33 30 30 28 23 22 5 4 13 28 5 2 6 6 3 2 4 3 1 1 3 3 4 6 8 4 6 5 8 5 4 4 6 0 1 1 5 5 4 5 4
26 29 29 30 28 27 34 34 33 32 31 11 3 2 9 9 9 12 5 9 3 2 4 5 4 4 2 3 0 3 3 3 6 2 7 7 2 1 5 4 2 3 4 3 4 3 13
28 27 29 30 33 34 30 34 37 36 35 22 2 4 1 3 1 5 13 13 12 5 4 2 2 3 2 2 3 3 3 4 3 3 8 5 3 6 8 5 4 3 4 5 5 3 12
29 30 32 32 32 33 34 36 34 40 41 26 4 4 3 6 13 14 7 5 14 9 6 7 2 4 5 5 3 4 2 2 3 3 3 3 1 1 2 1 1 4 5 7 9 17 9
34 35 35 34 34 34 34 31 41 39 42 12 4 3 1 3 5 16 10 15 9 13 7 5 3 8 6 6 6 5 4 3 4 2 3 2 3 3 5 4 5 7 3 10 16 14 15
38 36 35 37 38 36 37 36 40 45 44 6 8 3 1 6 7 12 20 17 14 7 2 4 5 3 5 5 6 6 7 5 6 8 4 4 4 2 5 3 5 8 8 12 4 6 6
37 35 34 36 39 39 38 38 37 45 44 11 20 6 2 2 8 16 18 16 6 14 9 1 7 5 2 3 4 5 5 2 5 3 4 6 6 3 2 1 5 6 4 5 8 7 9
36 37 38 36 38 39 38 34 31 49 43 17 27 5 3 2 9 3 11 12 14 4 3 9 6 4 6 4 4 4 4 4 2 4 5 3 4 2 2 2 7 6 3 5 5 6 4
38 38 37 38 40 39 39 35 34 37 42 24 19 15 4 3 5 7 6 5 6 10 4 4 1 3 3 3 2 5 5 4 4 0 4 5 4 3 3 3 5 6 3 5 5 5 5
39 38 36 37 39 39 40 41 36 36 34 25 14 16 6 1 1 3 4 7 6 5 3 4 6 4 3 3 3 4 4 5 6 7 5 3 1 7 3 5 6 7 5 4 5 6 5
42 40 38 38 38 39 41 40 41 40 39 31 14 24 12 2 1 3 3 2 4 6 4 4 4 1 2 5 4 4 4 5 3 5 7 7 7 3 4 5 8 5 5 6 4 1 5
46 44 41 39 39 38 36 40 42 40 39 30 8 19 22 3 1 2 7 13 10 3 8 3 4 6 5 4 3 3 1 1 4 3 2 3 7 6 9 7 1 6 3 3 4 4 5
Wind_Direction
210 215 213 220 234 240 242 245 245 244 249 252 256 262 269 272 275 279 286 293 302 310 318 325 327 342 348 359 259 296 295 353 17 28 41 13 49 78 41 296 330 138 335 324 295 292 256
263 254 256 243 227 215 221 227 230 236 243 249 252 256 261 265 270 272 276 284 292 299 308 321 327 343 312 304 246 254 264 305 355 30 39 46 51 25 102 313 99 303 283 294 284 274 272
272 268 267 268 266 262 251 243 237 237 229 229 239 250 260 260 262 263 267 273 280 288 299 313 328 347 269 246 230 231 254 291 292 301 113 241 29 65 114 335 340 316 335 329 328 28 122
264 258 259 267 274 272 265 268 262 255 255 250 252 256 260 273 258 252 258 266 274 278 293 308 323 331 252 268 266 247 240 271 276 260 238 283 62 119 133 320 9 40 51 27 309 359 331
254 259 261 253 264 257 260 258 253 256 252 255 257 254 254 253 255 234 256 254 264 274 281 296 317 7 267 300 259 266 236 200 145 153 182 137 70 74 34 77 357 8 200 183 315 37 56
252 254 255 251 257 255 247 240 243 246 249 246 247 250 242 247 253 249 242 243 271 268 242 257 202 21 266 280 311 270 178 172 131 87 58 48 45 77 52 95 236 195 256 252 269 284 30
249 249 252 248 249 244 244 242 249 252 257 246 246 243 234 234 240 238 222 151 325 224 222 200 207 252 293 310 270 151 152 127 76 56 136 27 70 235 212 205 119 77 171 250 256 268 340
253 248 242 242 240 242 244 247 258 260 267 250 232 243 235 220 236 241 221 183 206 122 304 233 241 267 273 292 323 204 161 153 144 189 109 43 236 238 178 170 231 226 273 274 278 269 170
243 244 240 240 238 237 236 252 252 256 253 252 237 235 213 210 218 203 201 191 127 331 267 272 207 208 213 179 217 242 157 152 162 189 176 169 221 104 151 186 212 221 202 238 233 310 300
240 238 235 231 236 238 237 237 248 241 239 245 235 216 188 200 182 196 192 185 171 350 301 271 243 256 173 142 261 211 197 145 202 222 169 221 246 235 178 244 153 273 226 232 235 110 241
242 240 235 233 229 233 232 233 242 233 238 233 231 219 199 199 171 173 185 176 188 76 294 207 194 151 151 170 137 40 189 116 174 174 129 232 164 132 157 217 155 226 163 175 176 232 24
241 238 238 232 232 226 223 226 236 232 227 227 222 220 199 191 185 193 187 183 141 68 246 305 143 163 135 236 311 120 108 89 142 171 208 217 198 165 195 194 179 130 88 45 50 81 270
243 237 237 235 227 223 219 218 225 230 227 229 232 218 201 193 209 175 170 139 121 202 340 235 192 164 187 165 211 115 149 162 147 137 229 269 221 215 150 251 100 103 88 322 320 350 240
238 240 237 234 231 226 222 223 225 228 229 225 228 217 202 203 210 170 162 138 196 197 211 309 138 98 181 150 217 131 125 155 242 85 119 177 316 170 162 180 185 167 161 167 234 219 255
236 234 235 232 229 227 224 220 219 218 218 213 210 203 201 203 197 175 159 187 213 195 190 199 125 135 216 221 151 128 176 194 195 170 175 160 266 279 160 150 146 173 167 179 177 118 11
225 225 226 227 225 224 221 219 208 209 203 200 179 197 210 199 192 170 183 209 223 232 343 41 185 171 192 191 144 167 184 216 216 184 155 193 167 251 80 92 34 152 155 71 10 274 260
210 212 219 223 222 224 221 219 210 201 206 199 175 179 194 185 158 176 201 219 212 226 309 280 238 179 174 176 170 192 209 277 233 162 115 134 130 254 124 209 185 115 180 73 145 166 225
215 207 203 216 218 220 218 218 213 202 198 195 188 184 180 165 169 133 213 197 314 132 184 259 5 284 194 132 151 207 209 240 347 151 159 189 140 180 199 56 299 139 189 151 135 249 241
214 215 215 224 227 222 215 213 212 204 192 174 196 141 191 181 179 213 177 215 236 259 190 179 219 227 216 156 346 195 186 45 14 177 164 181 174 46 347 353 12 203 188 164 105 81 260
221 220 217 214 217 217 216 213 207 202 194 187 149 161 189 213 218 203 201 209 214 188 280 218 224 165 141 202 243 213 176 11 357 67 48 86 144 177 222 203 139 182 196 185 166 197 272
228 224 220 219 217 216 215 209 213 205 194 174 189 202 195 179 207 206 175 192 205 212 209 175 227 184 170 187 186 187 82 26 21 23 63 94 180 91 261 164 213 230 201 196 210 243 228
229 225 223 218 216 216 217 214 210 204 187 171 182 169 351 170 167 200 205 209 214 203 177 182 197 194 193 196 185 182 161 195 203 9 99 11 142 103 320 285 242 265 219 237 247 259 260
228 223 223 222 220 219 215 208 206 200 185 149 176 160 126 186 167 179 209 211 210 140 193 190 188 224 220 242 220 224 199 202 172 161 167 107 107 118 259 300 323 294 222 226 220 216 210
226 221 221 222 221 218 210 206 206 197 186 170 167 133 153 180 179 201 209 209 198 198 203 250 212 194 260 103 81 53 67 67 164 142 140 140 139 148 230 215 259 255 214 203 213 236 219
225 221 219 218 220 216 210 200 207 200 183 162 161 147 146 156 196 155 203 195 212 233 228 228 250 211 152 60 53 11 358 12 222 184 146 122 140 141 159 207 300 287 205 186 187 285 225
221 219 217 217 218 212 207 201 206 199 184 186 161 187 106 117 207 190 185 168 176 203 222 213 34 151 127 112 132 200 199 191 233 248 62 110 53 133 141 217 249 239 193 163 129 297 173
218 216 214 214 214 208 202 193 197 196 195 181 195 190 106 121 293 182 177 187 138 144 172 155 165 180 146 127 147 213 222 198 169 178 171 136 121 208 176 227 271 240 159 141 101 247 170
214 210 209 209 207 201 193 193 196 193 190 186 183 192 177 152 313 342 309 184 137 176 156 193 118 184 87 167 185 184 210 219 170 176 172 164 163 190 187 220 262 135 85 180 203 47 150
208 204 203 202 200 193 187 187 190 193 192 182 157 182 194 147 195 192 283 284 277 276 187 210 180 165 167 157 191 146 181 103 170 228 157 200 183 182 188 210 236 215 178 154 162 152 182